TimeMDT,TemperatureF,Dew PointF,Humidity,Sea Level PressureIn,VisibilityMPH,Wind Direction,Wind SpeedMPH,Gust SpeedMPH,PrecipitationIn,Events,Conditions,WindDirDegrees,DateUTC
12:53 AM,48.0,34.0,58,30.04,10.0,Calm,Calm,-,N/A,,Clear,0,2012-10-14 06:53:00
1:53 AM,46.9,34.0,61,30.05,9.0,WSW,9.2,-,N/A,,Clear,250,2012-10-14 07:53:00
2:53 AM,48.0,35.1,61,30.06,9.0,WSW,10.4,-,N/A,,Mostly Cloudy,240,2012-10-14 08:53:00
3:53 AM,46.9,36.0,66,30.06,8.0,WSW,10.4,-,N/A,,Mostly Cloudy,250,2012-10-14 09:53:00
4:53 AM,45.0,36.0,71,30.09,7.0,West,9.2,-,N/A,,Scattered Clouds,270,2012-10-14 10:53:00
5:53 AM,44.1,36.0,73,30.10,7.0,SW,8.1,-,N/A,,Scattered Clouds,220,2012-10-14 11:53:00
6:53 AM,46.0,36.0,68,30.11,8.0,West,13.8,-,N/A,,Clear,280,2012-10-14 12:53:00
7:53 AM,50.0,36.0,59,30.12,7.0,WNW,17.3,25.3,N/A,,Clear,290,2012-10-14 13:53:00
8:53 AM,54.0,36.0,51,30.12,8.0,WNW,16.1,25.3,N/A,,Clear,290,2012-10-14 14:53:00
9:53 AM,59.0,37.0,44,30.14,9.0,WNW,19.6,-,N/A,,Clear,290,2012-10-14 15:53:00
10:53 AM,64.0,37.0,37,30.12,10.0,WNW,15.0,20.7,N/A,,Clear,300,2012-10-14 16:53:00
11:53 AM,66.9,35.1,31,30.10,10.0,WNW,18.4,25.3,N/A,,Clear,300,2012-10-14 17:53:00
12:53 PM,68.0,34.0,28,30.10,10.0,NW,15.0,27.6,N/A,,Clear,310,2012-10-14 18:53:00
2:53 PM,70.0,32.0,25,30.05,10.0,NW,20.7,31.1,N/A,,Clear,320,2012-10-14 20:53:00
3:53 PM,70.0,30.9,24,30.04,10.0,NW,18.4,28.8,N/A,,Clear,310,2012-10-14 21:53:00
4:53 PM,69.1,30.9,24,30.05,10.0,NW,15.0,27.6,N/A,,Clear,320,2012-10-14 22:53:00
5:53 PM,64.9,30.0,27,30.04,10.0,NW,4.6,-,N/A,,Clear,310,2012-10-14 23:53:00
6:53 PM,55.0,28.9,37,30.06,10.0,Calm,Calm,-,N/A,,Clear,0,2012-10-15 00:53:00
7:53 PM,46.9,28.0,48,30.08,10.0,South,3.5,-,N/A,,Clear,190,2012-10-15 01:53:00
8:53 PM,44.1,28.9,55,30.09,10.0,West,8.1,-,N/A,,Clear,260,2012-10-15 02:53:00
9:53 PM,42.1,28.9,60,30.07,10.0,SW,6.9,-,N/A,,Clear,230,2012-10-15 03:53:00
10:53 PM,42.1,30.0,62,30.05,10.0,WSW,5.8,-,N/A,,Clear,250,2012-10-15 04:53:00
11:53 PM,41.0,30.0,65,30.04,10.0,SW,6.9,-,N/A,,Clear,230,2012-10-15 05:53:00